GRACE-2 (27392 NORAD) Tracking and Keplerian Element Data

This shows tracking and keplerian element data for the satellite.

Feedback or suggestion? Click here.




ElementValue
Catalog27392
NameGRACE-2
Epoch Orbit88758
Epoch Day357.93734954
Epoch Year2017
RAAN292.6153
Inclination88.9684
Eccentricity0.0002005
Argument of Perigee198.7136
Mean Anonmoly161.7226
Mean Motion16.52514316
Decay Rate0.20424135
L11 27392U 02012B 17357.93734954 .20424135 -59216-6 17216-3 0 9996
L22 27392 88.9684 292.6153 0002005 198.7136 161.7226 16.52514316887583

Live tracking and technical data element details for GRACE-2 (NORAD 27392). GRACE-2 can be tracked NOW for your location showing map with azimuth and elevation plus other details from your city location.

Track the satellite on the map from your city or location and see movement details for azimuth, elevation, latitude, longitude, range, height, and movement on the map or in text.







IsCatalogInMostPopularTable: catalog: 27392, numindb: 35
Update: records affected: 1



GetName: 27392 GRACE-2

Hit Count: updated at: Mon, 20 Aug 2018 00:44:39 GMT